Location: Paderno d�Adda
(45.6667°N, 9.4333°E)
Time: 13:38:46
(UTC+00:00)

ATLAS 2AS CENTAUR R/B - Pass Details

Date: 19 September 2020
Orbit: 939 x 1273 km, 63.7° (Epoch: 27 October)

Event Time Altitude Azimuth Distance (km) Brightness Sun altitude
Rises 20:16:33 0° 210° (SSW) 4,182 5.7 -28.9°
Reaches altitude 10° 20:19:19 10° 209° (SSW) 3,238 5.1 -29.2°
Maximum altitude 20:27:14 79° 124° (SE) 1,299 2.9 -30.3°
Drops below altitude 10° 20:35:08 10° 40° (NE) 3,234 5.2 -31.4°
Sets 20:37:53 0° 39° (NE) 4,176 5.8 -31.8°
